Wadena, MN

8:55 AM CDT on April 29, 2017 (GMT -0500)
Wadena Municipal

Weather History for KADC - August, 2013

Change the Weather History Date:

Wednesday, August 7, 2013

  Actual Average Record
Temperature  
Mean Temperature 62 °F -  
Max Temperature 73 °F 78 °F 97 °F (1934)
Min Temperature 50 °F 56 °F 46 °F (1972)
Degree Days  
Heating Degree Days 4    
Growing Degree Days 12 (Base 50)    
Moisture  
Dew Point 50 °F    
Average Humidity 72    
Maximum Humidity 100    
Minimum Humidity 38    
Precipitation  
Precipitation 0.00 in - - ()
Sea Level Pressure  
Sea Level Pressure 29.98 in    
Wind  
Wind Speed 4 mph (NW)    
Max Wind Speed 13 mph    
Max Gust Speed -    
Visibility 10 miles    
Events Fog    
Averages and records for this station are not official NWS values.
T = Trace of Precipitation, MM = Missing Value Source: NWS Daily Summary

Daily Weather History Graph

Daily Weather History Graph

Search for Another Location

Airport or City:

Trip Planner

Search our weather history database for the weather conditions in past years. The results will help you decide how hot, cold, wet, or windy it might be!

Date:

Astronomy

Aug. 07, 2013 Rise Set
Actual Time 6:09 AM CDT 8:42 PM CDT
Civil Twilight 5:35 AM CDT 9:16 PM CDT
Nautical Twilight 4:52 AM CDT 9:59 PM CDT
Astronomical Twilight 4:03 AM CDT 10:48 PM CDT
Moon 7:05 AM CDT (8/7) 8:41 PM CDT (8/7)
Length of Visible Light 15h 41m
Length of Day
14h 33m
New Moon, 1% of the Moon is Illuminated
Aug 7
New Moon
Aug 14
First Quarter
Aug 20
Full
Aug 28
Last Quarter
Sep 5
New

Hourly Weather History & Observations

Time (CDT) Temp. Dew Point Humidity Pressure Visibility Wind Dir Wind Speed Gust Speed Precip Events Conditions
12:15 AM 59.0 °F 55.4 °F 88% 29.86 in 10.0 mi North 6.9 mph - N/A   Mostly Cloudy
12:35 AM 57.2 °F 55.4 °F 94% 29.86 in 10.0 mi North 5.8 mph - N/A   Scattered Clouds
12:53 AM 59.0 °F 55.4 °F 88% 29.87 in 10.0 mi North 4.6 mph - N/A   Mostly Cloudy
1:04 AM 57.2 °F 55.4 °F 94% 29.87 in 10.0 mi North 3.5 mph - N/A   Overcast
1:19 AM 57.2 °F 55.4 °F 94% 29.88 in 10.0 mi NNW 5.8 mph - N/A   Scattered Clouds
1:53 AM 55.4 °F 53.6 °F 94% 29.89 in 10.0 mi NNW 4.6 mph - N/A   Scattered Clouds
2:15 AM 53.6 °F 53.6 °F 100% 29.89 in 10.0 mi Calm Calm - N/A   Clear
2:35 AM 53.6 °F 51.8 °F 94% 29.90 in 10.0 mi Calm Calm - N/A   Clear
2:52 AM 51.8 °F 51.8 °F 100% 29.91 in 10.0 mi NW 6.9 mph - N/A   Clear
3:15 AM 51.8 °F 51.8 °F 100% 29.91 in 10.0 mi NW 5.8 mph - N/A   Clear
3:34 AM 51.8 °F 51.8 °F 100% 29.91 in 10.0 mi NW 4.6 mph - N/A   Clear
3:53 AM 51.8 °F 51.8 °F 100% 29.91 in 10.0 mi NW 3.5 mph - N/A   Clear
4:15 AM 51.8 °F 51.8 °F 100% 29.92 in 10.0 mi WNW 3.5 mph - N/A   Clear
4:35 AM 51.8 °F 51.8 °F 100% 29.92 in 10.0 mi WNW 3.5 mph - N/A   Clear
4:53 AM 50.0 °F 48.2 °F 94% 29.93 in 10.0 mi NW 5.8 mph - N/A   Clear
5:15 AM 50.0 °F 48.2 °F 94% 29.93 in 10.0 mi WNW 5.8 mph - N/A   Clear
5:35 AM 51.8 °F 50.0 °F 94% 29.94 in 10.0 mi WNW 4.6 mph - N/A   Clear
5:52 AM 50.0 °F 48.2 °F 94% 29.94 in 10.0 mi NW 3.5 mph - N/A   Clear
6:15 AM 50.0 °F 48.2 °F 94% 29.95 in 5.0 mi WNW 4.6 mph - N/A   Clear
6:35 AM 50.0 °F 48.2 °F 94% 29.95 in 0.2 mi NW 4.6 mph - N/A Fog Fog
6:53 AM 50.0 °F 48.2 °F 94% 29.95 in 0.8 mi NW 3.5 mph - N/A   Overcast
7:15 AM 50.0 °F 50.0 °F 100% 29.95 in 4.0 mi NW 3.5 mph - N/A   Mostly Cloudy
7:34 AM 51.8 °F 51.8 °F 100% 29.96 in 10.0 mi Calm Calm - N/A   Scattered Clouds
7:52 AM 53.6 °F 51.8 °F 94% 29.97 in 10.0 mi NW 3.5 mph - N/A   Clear
8:14 AM 55.4 °F 53.6 °F 94% 29.97 in 10.0 mi NNW 4.6 mph - N/A   Clear
8:34 AM 57.2 °F 53.6 °F 88% 29.98 in 10.0 mi North 4.6 mph - N/A   Clear
8:52 AM 57.2 °F 53.6 °F 88% 29.99 in 10.0 mi North 3.5 mph - N/A   Clear
9:15 AM 60.8 °F 51.8 °F 72% 30.00 in 10.0 mi Calm Calm - N/A   Clear
9:34 AM 60.8 °F 51.8 °F 72% 30.00 in 10.0 mi NNW 3.5 mph - N/A   Clear
9:53 AM 62.6 °F 51.8 °F 68% 30.00 in 10.0 mi NNW 3.5 mph - N/A   Clear
10:14 AM 64.4 °F 50.0 °F 59% 30.00 in 10.0 mi NNW 5.8 mph - N/A   Clear
10:34 AM 64.4 °F 50.0 °F 59% 30.01 in 10.0 mi North 4.6 mph - N/A   Clear
10:52 AM 66.2 °F 48.2 °F 52% 30.01 in 10.0 mi North 12.7 mph - N/A   Clear
11:14 AM 66.2 °F 48.2 °F 52% 30.01 in 10.0 mi NNW 4.6 mph - N/A   Clear
11:34 AM 66.2 °F 48.2 °F 52% 30.01 in 10.0 mi North 4.6 mph - N/A   Clear
11:53 AM 66.2 °F 48.2 °F 52% 30.02 in 10.0 mi NW 4.6 mph - N/A   Clear
12:15 PM 68.0 °F 48.2 °F 49% 30.02 in 10.0 mi NW 6.9 mph - N/A   Clear
12:35 PM 68.0 °F 48.2 °F 49% 30.02 in 10.0 mi WNW 8.1 mph - N/A   Clear
12:53 PM 69.8 °F 48.2 °F 46% 30.02 in 10.0 mi NNW 9.2 mph - N/A   Clear
1:15 PM 69.8 °F 48.2 °F 46% 30.02 in 10.0 mi North 6.9 mph - N/A   Clear
1:35 PM 69.8 °F 48.2 °F 46% 30.01 in 10.0 mi NW 8.1 mph - N/A   Clear
1:52 PM 69.8 °F 46.4 °F 43% 30.01 in 10.0 mi North 4.6 mph - N/A   Clear
2:15 PM 69.8 °F 48.2 °F 46% 30.02 in 10.0 mi NNW 4.6 mph - N/A   Scattered Clouds
2:35 PM 71.6 °F 48.2 °F 43% 30.01 in 10.0 mi NNW 6.9 mph - N/A   Scattered Clouds
2:52 PM 71.6 °F 46.4 °F 41% 30.01 in 10.0 mi NNW 3.5 mph - N/A   Scattered Clouds
3:15 PM 71.6 °F 48.2 °F 43% 30.01 in 10.0 mi NNW 5.8 mph - N/A   Mostly Cloudy
3:35 PM 71.6 °F 48.2 °F 43% 30.01 in 10.0 mi NNW 8.1 mph - N/A   Mostly Cloudy
3:52 PM 71.6 °F 48.2 °F 43% 30.01 in 10.0 mi West 5.8 mph - N/A   Scattered Clouds
4:14 PM 73.4 °F 46.4 °F 38% 30.01 in 10.0 mi West 3.5 mph - N/A   Mostly Cloudy
4:35 PM 73.4 °F 48.2 °F 41% 30.00 in 10.0 mi West 6.9 mph - N/A   Mostly Cloudy
4:52 PM 73.4 °F 48.2 °F 41% 30.00 in 10.0 mi NW 5.8 mph - N/A   Overcast
5:15 PM 69.8 °F 48.2 °F 46% 30.00 in 10.0 mi WNW 6.9 mph - N/A   Mostly Cloudy
5:35 PM 69.8 °F 50.0 °F 49% 30.01 in 10.0 mi WNW 5.8 mph - N/A   Mostly Cloudy
5:53 PM 69.8 °F 48.2 °F 46% 30.01 in 10.0 mi NW 4.6 mph - N/A   Mostly Cloudy
6:15 PM 71.6 °F 48.2 °F 43% 30.01 in 10.0 mi NW 3.5 mph - N/A   Scattered Clouds
6:35 PM 69.8 °F 48.2 °F 46% 30.00 in 10.0 mi NNW 5.8 mph - N/A   Clear
6:52 PM 69.8 °F 48.2 °F 46% 30.00 in 10.0 mi WNW 3.5 mph - N/A   Clear
7:14 PM 68.0 °F 50.0 °F 52% 30.00 in 10.0 mi NW 3.5 mph - N/A   Clear
7:34 PM 66.2 °F 51.8 °F 60% 30.00 in 10.0 mi NW 3.5 mph - N/A   Clear
7:53 PM 66.2 °F 51.8 °F 60% 30.00 in 10.0 mi Calm Calm - N/A   Clear
8:15 PM 64.4 °F 51.8 °F 64% 30.00 in 10.0 mi Calm Calm - N/A   Clear
8:35 PM 60.8 °F 51.8 °F 72% 30.01 in 10.0 mi Calm Calm - N/A   Clear
8:53 PM 59.0 °F 51.8 °F 77% 30.01 in 10.0 mi Calm Calm - N/A   Clear
9:15 PM 57.2 °F 51.8 °F 82% 30.01 in 10.0 mi Calm Calm - N/A   Clear
9:35 PM 55.4 °F 50.0 °F 82% 30.02 in 10.0 mi Calm Calm - N/A   Clear
9:53 PM 55.4 °F 50.0 °F 82% 30.02 in 10.0 mi Calm Calm - N/A   Clear
10:15 PM 53.6 °F 50.0 °F 88% 30.02 in 10.0 mi Calm Calm - N/A   Clear
10:35 PM 53.6 °F 50.0 °F 88% 30.02 in 10.0 mi Calm Calm - N/A   Clear
10:46 PM 51.8 °F 48.2 °F 88% 30.02 in 10.0 mi Calm Calm - N/A   Clear
11:14 PM 53.6 °F 50.0 °F 88% 30.02 in 10.0 mi Calm Calm - N/A   Clear
11:35 PM - - N/A% 30.02 in 10.0 mi Calm Calm - N/A   Clear
11:53 PM 50.0 °F 48.2 °F 94% 30.02 in 10.0 mi Calm Calm - N/A   Clear